HELIOS 1B

Last updated on Thu Nov 21 2024 00:02:12 GMT+0000 (Coordinated Universal Time)

1 25977U 99064A 24325.11205522 .00002320 00000+0 27637-3 0 9996 2 25977 98.2188 201.8555 0001933 119.2768 240.8639 14.85359213614750
UTC large
Height (km)
Speed (km/s)
/
Latitude / Longitude
Inclination (degrees)
Orbital Period (minutes)
Azimuth
Elevation
Range (km)
Doppler Factor

Next 0 passes for location: London (51.5072 / 0.1276)

Sorry there are no passes over London.